Regional Weather Roundup
Issued by NWS

Home | Current Version | Previous Version | Text Only | Print | Product List | Glossary Off
Versions: 1 2 3 4 5 6 7 8 9 10 11 12 13 14 15 16 17 18 19 20 21 22 23 24 25 26 27 28 29 30 31 32 33 34 35 36 37 38 39 40 41 42 43 44 45 46 47 48 49 50

000
ASUS43 KFSD 280710
RWRSD

WEATHER ROUNDUP FOR SOUTH DAKOTA
NATIONAL WEATHER SERVICE SIOUX FALLS SD
100 AM CST WED JAN 28 2015

NOTE: "FAIR" INDICATES FEW OR NO CLOUDS BELOW 12,000 FEET WITH NO
SIGNIFICANT WEATHER AND/OR OBSTRUCTIONS TO VISIBILITY.


SDZ001>005-009-010-012>017-280800-
NORTHWEST AND NORTH CENTRAL SOUTH DAKOTA

CITY           SKY/WX    TMP DP  RH WIND       PRES   REMARKS
BUFFALO          N/A     44  30  57 W8        29.73S
FAITH            N/A     39  29  67 NW5       29.76F
MOBRIDGE       MOCLDY    35  31  85 SE7       29.74F WCI  29
$$

SDZ012>016-024>037-041>051-057-063-072>074-280800-
SOUTHWEST AND SOUTH CENTRAL SOUTH DAKOTA

CITY           SKY/WX    TMP DP  RH WIND       PRES   REMARKS
RAPID CTY ARPT MOCLDY    44  26  49 NW8       29.78F
PIERRE         PTCLDY    34  31  88 SE7       29.75F WCI  28
CUSTER         CLEAR     46  25  43 W12       29.91F
PHILIP         PTCLDY    43  30  60 W10       29.75F
PINE RIDGE     PTCLDY    34  26  72 SW6       29.86F WCI  29
WINNER         FAIR      48  32  53 SW6       29.79F
$$

SDZ004>011-016>023-039-040-280800-
NORTHEAST SOUTH DAKOTA

CITY           SKY/WX    TMP DP  RH WIND       PRES   REMARKS
ABERDEEN       PTCLDY    32  30  92 S6        29.83F WCI  26
WATERTOWN      CLEAR     33  30  88 S14       29.86F WCI  23
SISSETON         N/A     32  32 100 S14       29.89F WCI  22
$$

SDZ017-020-022-023-036>040-048>070-280800-
SOUTHEAST SOUTH DAKOTA

CITY           SKY/WX    TMP DP  RH WIND       PRES   REMARKS
SIOUX FALLS    CLEAR     36  30  79 S10       29.93S
HURON          MOCLDY    35  31  85 SE14      29.83F WCI  26
CHAMBERLAIN    MOCLDY    34  32  91 SE6       29.78F WCI  29
MITCHELL       MOCLDY    36  32  85 SE14      29.86F
YANKTON        PTCLDY    34  28  80 E8        29.91F WCI  27
$$

ABBREVIATIONS USED IN REMARKS
   TC - TEMPERATURE IN CELSIUS
  WCI - WIND CHILL INDEX
   HX - HEAT INDEX
  VSB - VISIBILITY




USA.gov is the U.S. government's official web portal to all federal, state and local government web resources and services.